Location: La Pernelle
(49.6188°N, 1.2999°W)
Time: 03:45:35
(UTC+00:00)

NOSS 3-2 (A) - Pass Details

Date: 20 October 2021
Orbit: 771 x 1437 km, 63.4° (Epoch: 21 November)

Event Time Altitude Azimuth Distance (km) Brightness Sun altitude
Rises 19:13:47 0° 304° (NW) 3,681 7.6 -21.6°
Reaches altitude 10° 19:16:37 10° 316° (NW) 2,833 6.6 -22.1°
Maximum altitude 19:22:26 29° 15° (NNE) 1,958 5.0 -23.0°
Enters shadow 19:25:14 23° 49° (NE) 2,288 5.1 -23.4°
